User: anonymous   Login
Location: Unspecified
(0.0000°N, 0.0000°E)
Time: 21:50:55
(UTC+00:00)
Language:

SINAH 1 - Orbit

View from above orbital plane
View from above orbital plane
View from above satellite
View from above satellite

Ground track
Ground track

The orbit data is extracted from the following two-line orbital elements,

1 28893U 05043D   18145.89569212 +.00000006 +00000-0 +10219-4 0  9996
2 28893 097.9193 293.5022 0016020 148.7020 211.5139 14.61475129670256
Epoch (UTC): 25 May 2018 21:29:47
Eccentricity: 0.0016020
inclination: 97.9193°
perigee height: 677 km
apogee height: 700 km
right ascension of ascending node: 293.5022°
argument of perigee: 148.7020°
revolutions per day: 14.61475129
mean anomaly at epoch: 211.5139°
orbit number at epoch: 67025

The dashed part of the orbit path shows where the satellite is in the earth's shadow,  

DLR